STARLINK-2763, 48670

Orbit data source: Space-Track

STARLINK-2763, 48670 is a payload satellite owned by SpaceX/Seattle (US) in LEO that was launched on Wed, 26 May 2021 UTC via an FALCON 9 launch vehicle from the Air Force Eastern Test Range (AFETR). Payload-class satellites include a variety of spacecraft equipped with specific instruments for various scientific and technological missions. These include communications satellites like Starlink; space stations such as the ISS; scientific satellites like the Hubble; Earth observation satellites from companies like Planet Labs, Umbra, and HawkEye 360; GPS; miniature CubeSats for education and research; and military/defense satellites.

Loading next visibility...
Identifier
48670, 2021-044AJ
Orbit
LEO
Country
Flag of USUS
Related business
Manufacturer
SpaceX/Seattle
Mission
Operational Commercial Communications
Bus & Motor
STARLINK, Unknown motor
Mass
260 kg wet, ~248 kg dry
Launch date (UTC)
2021-05-26 (5 years ago)
Launch vehicle
FALCON 9
Launch site
Air Force Eastern Test Range (AFETR)
Object type
Payload
Rocket body
Debris
Shape & HBR
Box + 1 Pan, 10.1 m
Radar Cross Section
13.562 m², Large (>1 m²)

Expand to show TLE details & history
Last TLE update: 2 days ago

TLE from 2 days ago
0 STARLINK-2763
1 48670U 21044AJ  26171.21379350  .00001666  00000-0  65428-4 0  9991
2 48670  53.1606 347.2377 0000955  95.1282 264.9829 15.31709719279660
Epoch: 2026-06-20T05:07Z
TLE epoch observation values (Epoch: 2026-06-20T05:07:51.758Z)
Latitude
0.00003°
Longitude
1.84043°
Altitude
471.669 km
Speed
7.631 km/s
True Right ascension
23h 08m 57s
True Declination
0° 00' 00"
Sunlit
Object was in daylight at epoch
Visualization orbit readout
Latitude
Unknown
Longitude
Unknown
Altitude
Unknown
Speed
Unknown
Apparent Right ascension
Unknown
Apparent Declination
Unknown
Sunlit
N/A
Visualization observer readout
Local Sidereal Time
21:35:40
Azimuth
Unknown
Elevation
Unknown
Doppler factor
Unknown
Orbital elements
Apogee altitude
471.622 km
Perigee altitude
470.313 km
Semi-major axis
6,849.105 km
Eccentricity
0.0001
Inclination
53.1606°
RAAN
347.2377°
Arg. of periapsis
95.1282°
True anomaly
264.972°
Mean anomaly
264.9829°
Eccentric anomaly
264.97745°
Mean motion
3.82906 °/min
Orbital period
94.02 mins
BSTAR
0.000065428
Loading maneuver chart data...
Computing Atmospheric mass density...

Documentation

Showing up to 5 results
|